User: anonymous   Login
Location: Unspecified
(0.0000°N, 0.0000°E)
Time: 23:58:28
(UTC+02:00)
Language:

ISS - Orbit

View from above orbital plane
View from above orbital plane
View from above satellite
View from above satellite

Ground track
Ground track

The orbit data is extracted from the following two-line orbital elements,

1 25544U 98067A   18116.50157407  .00016717  00000-0  10270-3 0  9036
2 25544  51.6379 276.3725 0002722  17.9115 342.2134 15.54172869 30473
Epoch (UTC): 26 April 2018 12:02:16
Eccentricity: 0.0002722
inclination: 51.6379°
perigee height: 403 km
apogee height: 406 km
right ascension of ascending node: 276.3725°
argument of perigee: 17.9115°
revolutions per day: 15.54172869
mean anomaly at epoch: 342.2134°
orbit number at epoch: 3047

The dashed part of the orbit path shows where the satellite is in the earth's shadow,  

DLR